Location: Berkeley
(37.8716°N, 122.2727°W)
Time: 14:50:53

N. Korean satellite - Visible Passes

Search period start: 24 March 2018 00:00
Search period end: 03 April 2018 00:00
Orbit: 460 x 512 km, 97.2° (Epoch: 23 March)

Date Brightness Start Highest point End Pass type
(mag) Time Alt. Az. Time Alt. Az. Time Alt. Az.
24 Mar 10.1 20:07:47 10° WSW 20:09:34 13° W 20:11:22 10° WNW visible
28 Mar 10.1 20:05:44 10° SW 20:07:41 14° W 20:09:39 10° WNW visible
01 Apr 10.0 20:03:39 10° SW 20:05:45 14° W 20:07:53 10° WNW visible
